Location: Newark
(5.8900°S, 42.6378°W)
Time: 00:21:04
(UTC+00:00)

OTV 5 (USA 277) - Visible Passes

Search period start: 21 August 2019 00:00
Search period end: 31 August 2019 00:00
Orbit: 305 x 329 km, 54.5° (Epoch: 20 August)

Date Brightness Start Highest point End Pass type
(mag) Time Alt. Az. Time Alt. Az. Time Alt. Az.
21 Aug ? 21:36:21 10° WSW 21:38:48 28° WNW 21:41:13 10° N visible
25 Aug ? 08:08:21 10° NNW 08:10:49 37° ENE 08:13:19 10° SE visible
26 Aug ? 08:22:53 10° WNW 08:25:17 30° WSW 08:27:42 10° S visible
27 Aug ? 07:07:19 11° E 07:07:19 11° E 07:07:31 10° ESE visible
